Location: Mahannah Oil Field
(37.4664°N, 96.6003°W)
Time: 08:38:24
(UTC+00:00)

Courier 1B - Pass Details

Date: 21 January 2021
Orbit: 962 x 1209 km, 28.3° (Epoch: 02 March)

Event Time Altitude Azimuth Distance (km) Brightness Sun altitude
Rises 10:36:51 0° 262° (W) 3,636 - -35.6°
Reaches altitude 10° 10:39:47 10° 252° (WSW) 2,698 - -35.0°
Maximum altitude 10:45:19 30° 193° (SSW) 1,681 - -33.9°
Exits shadow 10:46:57 27° 168° (SSE) 1,806 8.9 -33.6°
Drops below altitude 10° 10:51:02 10° 134° (SE) 2,788 10.4 -32.8°
Sets 10:54:07 0° 124° (SE) 3,777 11.3 -32.2°
